Location: *
(23.7009°S, 46.6968°W)
Time: 13:32:27
(UTC+00:00)

Daily predictions for brighter satellites

Satellite Brightness Start Highest point End
(mag) Time Altitude Azimuth Time Altitude Azimuth Time Altitude Azimuth
IUS-12 SRM-1 3.9 21:28:13 10° W 21:31:32 74° S 21:42:26 10° E
COSMOS 2428 2.9 21:36:15 10° S 21:41:52 55° ESE 21:47:25 10° NNE
Meteor 1-21 Rocket 4.4 21:38:20 10° N 21:44:05 56° E 21:49:51 10° SSE
Cosmos 2219 3.2 21:38:47 10° N 21:44:23 70° ENE 21:50:04 10° SSE
Meteor 1-4 Rocket 4.2 21:40:58 10° SSW 21:44:29 40° W 21:47:53 10° NNW
Intelsat 5-1 Rocket 3.9 21:43:08 10° NNE 21:44:36 12° NE 21:46:28 10° ENE
FUSE 4.0 21:39:19 10° W 21:44:43 89° SSE 21:50:01 11° E
Cosmos 1624 Rocket 4.3 21:40:18 10° S 21:45:21 47° ESE 21:50:23 10° NNE
SL-4 R/B 4.1 21:43:24 10° S 21:45:58 15° SE 21:48:37 10° ESE
CZ-4B R/B 1.3 21:42:40 10° NNE 21:46:01 79° ESE 21:49:22 10° S
PSLV R/B 4.0 21:44:17 10° NNE 21:48:15 56° ESE 21:52:20 10° S
Cosmos 2297 Rocket 2.5 21:43:55 10° NNW 21:49:33 73° WSW 21:55:15 10° SSE
Cosmos 1455 2.4 21:47:37 10° S 21:51:25 49° E 21:55:10 10° NNE
Cosmos 1048 Rocket 3.9 21:48:30 10° N 21:53:39 70° ENE 21:58:48 10° SSE
Cosmos 2123 Rocket 4.3 21:48:30 10° NNE 21:54:20 42° E 22:00:10 10° SSE
Cosmos 2173 Rocket 4.4 21:49:11 10° SSE 21:54:55 40° E 22:00:35 10° NNE
Cosmos 2058 Rocket 4.4 21:53:39 10° SSE 21:57:06 21° E 21:59:33 14° ENE
Iridium 4 Rocket 3.7 21:52:08 10° N 21:57:36 80° E 22:03:30 10° S
Timation 2 Rocket 4.1 21:54:01 10° N 22:00:14 55° ENE 22:06:15 10° SSE
Cosmos 468 4.4 21:55:17 10° N 22:00:29 78° ENE 22:05:44 10° SSE
Skynet4D Del rocket 3.8 21:55:17 10° WSW 22:01:03 65° S 22:05:38 14° E
Cosmos 2084 3.4 21:59:26 10° SSW 22:03:36 59° ESE 22:06:53 15° NE
Cosmos 1892 Rocket 3.6 21:59:47 10° N 22:04:09 82° W 22:08:33 10° S
PSLV R/B 3.7 22:04:25 10° NW 22:06:04 21° N 22:06:42 19° NNE
Cosmos 2228 3.1 22:02:33 10° S 22:06:54 80° W 22:11:13 10° N
CZ-4C R/B 2.6 22:02:49 10° SW 22:07:21 47° WNW 22:11:27 10° N
Cosmos 1818 3.5 22:02:56 10° SSW 22:08:18 67° ESE 22:13:11 12° NNE
YAOGAN 1 3.1 22:09:09 10° SSE 22:13:10 36° E 22:17:09 10° NNE
Cosmos 494 Rocket 3.9 22:08:05 10° NNW 22:13:12 88° ENE 22:18:22 10° SSE
Lacrosse 5 2.9 22:11:02 10° SW 22:15:54 45° WNW 22:20:44 10° NNE
Cosmos 2227 Rocket 2.9 22:11:14 10° NNW 22:16:46 57° WSW 22:22:21 10° S
Palapa 6 Rocket 2.8 22:13:44 10° W 22:17:43 74° N 22:20:13 26° E
Cosmos 1689 Rocket 3.2 22:20:47 25° SE 22:20:47 25° SE 22:22:33 10° SSE
Cosmos 2333 Rocket 3.9 22:16:25 10° SW 22:21:25 33° WNW 22:26:23 10° NNW
H-2A R/B 2.6 22:18:50 10° SSE 22:23:20 63° E 22:27:47 10° N
Atlas Centaur 2 3.2 22:17:19 10° W 22:23:54 59° S 22:31:07 13° ESE
Okean O Rocket 2.3 22:20:03 10° S 22:24:23 57° WSW 22:28:39 10° NNW
SL-08 RB Rocket 3.6 22:21:12 10° SSE 22:25:42 68° E 22:30:08 10° N
Cosmos 1420 Rocket 4.0 22:21:18 10° SSW 22:26:40 86° ESE 22:31:22 13° NNE
Cosmos 1437 Rocket 4.2 22:23:44 10° SSE 22:26:32 23° ESE 22:26:32 23° ESE
Cosmos 1606 Rocket 4.1 22:22:58 10° SSW 22:27:21 60° W 22:31:44 10° N
Cosmos 2219 Rocket 3.6 22:22:22 10° SW 22:27:30 37° WNW 22:32:35 10° N
Cosmos 1452 Rocket 4.2 22:23:16 10° S 22:28:05 35° ESE 22:29:30 30° ENE
Cosmos 1980 3.9 22:22:43 10° S 22:28:15 49° ESE 22:30:56 28° NE
Cosmos 1626 Rocket 3.6 22:25:52 10° N 22:30:07 55° E 22:34:27 10° SSE
Cosmos 2237 Rocket 2.5 22:25:11 10° S 22:30:39 48° ESE 22:33:03 30° NE
CZ-4B R/B 4.2 22:26:29 10° S 22:31:46 49° WSW 22:37:06 10° NNW
Cosmos 2016 Rocket 4.0 22:28:24 10° S 22:34:44 59° E 22:39:24 18° NNE
CZ-4 R/B 1.1 22:32:30 10° SSE 22:36:23 77° E 22:40:15 10° N
Cosmos 1725 Rocket 4.1 22:30:40 10° S 22:36:53 53° E 22:40:22 25° NNE
Cosmos 44 Rocket 3.3 22:32:28 10° SSW 22:37:28 78° ESE 22:39:44 33° NNE
Cosmos 2061 Rocket 4.0 22:32:01 10° S 22:38:08 56° E 22:41:47 25° NNE
Okean-O 3.4 22:36:28 10° SSE 22:39:35 33° ESE 22:39:35 33° ESE
USA 281 3.9 22:43:10 31° E 22:44:42 35° ESE 22:50:32 10° S
Cosmos 2082 3.9 22:39:22 10° NNW 22:44:59 72° WSW 22:50:41 10° SSE
ARGOS 3.9 22:40:47 10° S 22:46:02 53° WSW 22:51:14 10° NNW
Cosmos 1607 4.5 22:41:24 10° N 22:49:22 28° ESE 22:52:36 10° SE
H-2A R/B 4.3 22:43:55 10° SSW 22:48:05 26° WSW 22:52:18 10° NW
Cosmos 1447 Rocket 4.5 22:48:32 25° NNE 22:52:11 59° E 22:58:21 10° SSE
OAO 2 Rocket 3.7 22:47:08 10° SW 22:52:22 56° SSE 22:53:33 46° ESE
Cosmos 2233 Rocket 4.3 22:46:34 10° SSE 22:52:34 43° E 22:53:10 42° E
MetOp-A 4.1 22:50:16 10° SSE 22:55:33 54° E 22:55:49 54° ENE
Meteor 1-11 4.5 22:51:54 10° NNW 22:57:35 72° W 23:03:25 10° S
Cosmos 1242 Rocket 4.3 22:57:05 10° S 22:58:31 23° S 22:58:31 23° S
ASTRO E2 4.3 23:00:14 10° WSW 23:03:40 26° S 23:04:06 26° S
GPS 2-17 Rocket1 3.5 23:00:53 10° WNW 23:04:55 51° NNW 23:04:55 51° NNW
ATLAS 3B CENTAUR R/B 1.6 23:01:22 10° WNW 23:08:09 81° NW 23:08:09 81° NW
CSL-04 Rocket 4.1 23:04:12 10° SSE 23:08:05 44° SE 23:08:05 44° SE
Sakura Rocket 4.2 23:08:16 10° WSW 23:13:09 53° S 23:14:36 43° SE
Aurora 2 Rocket 4.2 23:09:12 10° NW 23:18:55 54° NNE 23:19:35 53° NE
In-Cosmos 22 Rocket 4.1 23:24:09 79° SW 23:24:09 79° SW 23:29:31 10° S
SL-4 R/B 3.3 23:21:24 10° SW 23:24:38 43° W 23:24:38 43° W
Mugunghwa Rocket 3.9 23:20:23 10° W 23:26:34 69° NNW 23:26:34 69° NNW
Cosmos 2263 Rocket 2.9 23:30:54 45° S 23:30:54 45° S 23:34:45 10° SSE
